COSMOS 1540 1 14783U 84022A 21062.73035642 -.00000115 00000-0 00000-0 0 9998 2 14783 13.2431 323.3382 0003993 188.9792 348.6171 1.00260222101659 SL-12 R/B(2) 1 14948U 84022F 21063.17185848 -.00000161 00000-0 00000-0 0 9995 2 14948 13.3838 323.6767 0024725 93.8085 79.7394 0.99863877141991